USA718 KPHL-LIRF

Flight info

Callsign USA718
Flight time N/A
Altitude 37000
Route DCT DITCH T416 JIMEE/N0476F370 DCT WAVEY DCT SHLEP DCT HTO DCT ENE DCT TOPPS N683B NEEKO/M082F390 DCT 54N050W 55N040W 55N030W 54N020W DCT MALOT DCT GISTI/N0479F390 DCT LESLU DCT LIZAD DCT JSY DCT ARSUK DCT RESMI UL612 OGULO DCT OKASI DCT OKEKO DCT MOU DCT MADIV DCT MOKIP DCT TUFTA DCT KOGAS DCT MEDAM DCT NITAM DCT MOGBO DCT ELB/N0468F400 DCT ELKAP ELKAP3A
Aircraft A333/H-SDE3GHIJ2J3J5M1RVWXY/LB2D1

Departure

Time N/A
Airport Philadelphia International Airport (KPHL)

Arrival

Time 2026-05-01 14:56
Airport Rome–Fiumicino Leonardo da Vinci International Airport (LIRF)
Time Latitude Longitude Altitude Speed Heading
2026-05-01 13:45 46.90523 3.51151 37213 ft 464 kts 161°
2026-05-01 13:46 46.87534 3.52966 37219 ft 466 kts 161°
2026-05-01 13:46 46.81533 3.56603 37217 ft 468 kts 161°
2026-05-01 13:47 46.75749 3.61017 37219 ft 474 kts 147°
2026-05-01 13:47 46.71088 3.67859 37219 ft 482 kts 127°
2026-05-01 13:47 46.69433 3.72132 37220 ft 486 kts 116°
2026-05-01 13:48 46.68304 3.76789 37225 ft 489 kts 108°
2026-05-01 13:48 46.66586 3.86401 37219 ft 491 kts 105°
2026-05-01 13:49 46.65020 3.96078 37216 ft 491 kts 105°
2026-05-01 13:49 46.63417 4.05675 37210 ft 491 kts 105°
2026-05-01 13:50 46.61756 4.15294 37219 ft 489 kts 106°
2026-05-01 13:50 46.60075 4.24884 37218 ft 489 kts 106°
2026-05-01 13:51 46.58386 4.34457 37221 ft 489 kts 106°
2026-05-01 13:51 46.56689 4.44046 37220 ft 489 kts 106°
2026-05-01 13:52 46.54988 4.53605 37223 ft 488 kts 106°
2026-05-01 13:52 46.53286 4.63130 37219 ft 488 kts 106°
2026-05-01 13:53 46.51573 4.72661 37217 ft 488 kts 106°
2026-05-01 13:53 46.48989 4.86942 37214 ft 487 kts 106°
2026-05-01 13:54 46.47261 4.96434 37215 ft 486 kts 106°
2026-05-01 13:54 46.45528 5.05898 37203 ft 486 kts 106°
2026-05-01 13:55 46.43783 5.15382 37216 ft 488 kts 106°
2026-05-01 13:55 46.42027 5.24898 37225 ft 488 kts 106°
2026-05-01 13:56 46.40268 5.34386 37226 ft 487 kts 106°
2026-05-01 13:56 46.37665 5.43361 37227 ft 482 kts 124°
2026-05-01 13:57 46.34352 5.49820 37240 ft 481 kts 131°
2026-05-01 13:57 46.29318 5.58401 37239 ft 481 kts 133°
2026-05-01 13:58 46.24933 5.65687 37253 ft 480 kts 132°
2026-05-01 13:58 46.20555 5.73005 37253 ft 481 kts 132°
2026-05-01 13:59 46.16184 5.80342 37260 ft 482 kts 132°
2026-05-01 13:59 46.11808 5.87685 37258 ft 482 kts 132°
2026-05-01 14:00 46.07428 5.95013 37259 ft 483 kts 132°
2026-05-01 14:00 46.03067 6.02287 37259 ft 481 kts 132°
2026-05-01 14:01 45.98689 6.09572 37258 ft 481 kts 131°
2026-05-01 14:01 45.94299 6.16855 37279 ft 483 kts 132°
2026-05-01 14:02 45.89893 6.24147 37262 ft 484 kts 132°
2026-05-01 14:02 45.85476 6.31438 37250 ft 484 kts 131°
2026-05-01 14:03 45.80937 6.38531 37248 ft 481 kts 139°
2026-05-01 14:03 45.75680 6.44415 37246 ft 480 kts 144°
2026-05-01 14:04 45.70265 6.49955 37247 ft 481 kts 146°
2026-05-01 14:04 45.65668 6.54572 37266 ft 481 kts 146°
2026-05-01 14:05 45.59302 6.60980 37272 ft 482 kts 146°
2026-05-01 14:05 45.53826 6.66507 37272 ft 483 kts 145°
2026-05-01 14:06 45.48356 6.72026 37288 ft 483 kts 145°
2026-05-01 14:06 45.42854 6.77563 37268 ft 483 kts 145°
2026-05-01 14:07 45.37354 6.83085 37308 ft 483 kts 145°
2026-05-01 14:08 45.30022 6.90422 37298 ft 485 kts 145°
2026-05-01 14:08 45.23950 6.97462 37315 ft 485 kts 137°
2026-05-01 14:09 45.19072 7.04063 37332 ft 483 kts 136°
2026-05-01 14:09 45.15048 7.09629 37330 ft 483 kts 135°
2026-05-01 14:10 45.10414 7.16483 37323 ft 485 kts 127°
2026-05-01 14:10 45.06398 7.24163 37323 ft 485 kts 125°
2026-05-01 14:11 45.02514 7.31981 37322 ft 485 kts 124°
2026-05-01 14:11 44.96332 7.43277 37353 ft 485 kts 133°
2026-05-01 14:12 44.91610 7.50087 37352 ft 486 kts 135°
2026-05-01 14:12 44.86780 7.56797 37355 ft 487 kts 135°
2026-05-01 14:13 44.81940 7.63491 37346 ft 487 kts 135°
2026-05-01 14:13 44.77151 7.70129 37357 ft 486 kts 135°
2026-05-01 14:14 44.72308 7.76842 37372 ft 486 kts 135°
2026-05-01 14:14 44.67511 7.83478 37352 ft 488 kts 135°
2026-05-01 14:15 44.62662 7.90169 37349 ft 488 kts 135°
2026-05-01 14:15 44.57816 7.96838 37351 ft 488 kts 135°
2026-05-01 14:16 44.52967 8.03496 37340 ft 488 kts 135°
2026-05-01 14:16 44.48137 8.10110 37331 ft 488 kts 135°
2026-05-01 14:17 44.43276 8.16749 37340 ft 488 kts 135°
2026-05-01 14:17 44.38418 8.23368 37323 ft 488 kts 135°
2026-05-01 14:18 44.33553 8.29981 37323 ft 488 kts 135°
2026-05-01 14:18 44.29507 8.35470 37317 ft 488 kts 135°
2026-05-01 14:19 44.23801 8.43192 37305 ft 489 kts 135°
2026-05-01 14:19 44.18914 8.49787 37306 ft 489 kts 135°
2026-05-01 14:20 44.11568 8.59667 37297 ft 489 kts 135°
2026-05-01 14:21 44.06666 8.66243 37296 ft 490 kts 135°
2026-05-01 14:21 44.01784 8.72775 37307 ft 491 kts 134°
2026-05-01 14:22 43.94397 8.82630 37296 ft 491 kts 134°
2026-05-01 14:22 43.89454 8.89204 37295 ft 492 kts 134°
2026-05-01 14:23 43.84514 8.95757 37295 ft 492 kts 135°
2026-05-01 14:23 43.79556 9.02320 37297 ft 493 kts 135°
2026-05-01 14:24 43.74588 9.08879 37300 ft 493 kts 135°
2026-05-01 14:24 43.69610 9.15437 37298 ft 494 kts 134°
2026-05-01 14:25 43.64627 9.21985 37298 ft 495 kts 134°
2026-05-01 14:25 43.59694 9.28450 37298 ft 495 kts 134°
2026-05-01 14:26 43.52197 9.38247 37295 ft 496 kts 134°
2026-05-01 14:27 43.47186 9.44777 37297 ft 496 kts 134°
2026-05-01 14:27 43.42165 9.51305 37299 ft 497 kts 134°
2026-05-01 14:28 43.34587 9.61126 37273 ft 500 kts 134°
2026-05-01 14:28 43.29522 9.67670 37292 ft 500 kts 134°
2026-05-01 14:29 43.24455 9.74200 37272 ft 500 kts 134°
2026-05-01 14:30 43.14292 9.87255 37282 ft 502 kts 134°
2026-05-01 14:31 43.06616 9.97073 37279 ft 503 kts 134°
2026-05-01 14:31 43.01494 10.03603 37273 ft 503 kts 134°
2026-05-01 14:32 42.96388 10.10099 36896 ft 507 kts 134°
2026-05-01 14:32 42.93803 10.13383 36212 ft 509 kts 134°
2026-05-01 14:32 42.91210 10.16672 35521 ft 509 kts 135°
2026-05-01 14:32 42.88609 10.19967 34892 ft 509 kts 135°
2026-05-01 14:33 42.86014 10.23250 34218 ft 509 kts 135°
2026-05-01 14:33 42.83389 10.26569 33009 ft 519 kts 134°
2026-05-01 14:33 42.80726 10.29932 31937 ft 525 kts 133°
2026-05-01 14:33 42.78050 10.33302 31223 ft 521 kts 133°
2026-05-01 14:34 42.75567 10.36863 30337 ft 514 kts 121°
2026-05-01 14:34 42.73839 10.41031 29560 ft 499 kts 106°
2026-05-01 14:34 42.72990 10.45497 29057 ft 478 kts 92°
2026-05-01 14:34 42.72690 10.49925 28837 ft 461 kts 88°
2026-05-01 14:35 42.72501 10.54146 28702 ft 445 kts 87°
2026-05-01 14:35 42.72332 10.58338 28650 ft 431 kts 86°
2026-05-01 14:35 42.72090 10.62293 28522 ft 423 kts 92°
2026-05-01 14:35 42.71224 10.66114 28336 ft 427 kts 108°
2026-05-01 14:36 42.69779 10.69639 28025 ft 425 kts 114°
2026-05-01 14:36 42.68218 10.73044 27517 ft 424 kts 115°
2026-05-01 14:36 42.66647 10.76422 27058 ft 421 kts 115°
2026-05-01 14:36 42.65090 10.79776 26606 ft 418 kts 115°
2026-05-01 14:37 42.63551 10.83105 26168 ft 414 kts 115°
2026-05-01 14:37 42.62026 10.86409 25732 ft 411 kts 114°
2026-05-01 14:37 42.60523 10.89663 25050 ft 403 kts 114°
2026-05-01 14:37 42.59041 10.92876 24174 ft 399 kts 114°
2026-05-01 14:38 42.57580 10.96041 23307 ft 393 kts 114°
2026-05-01 14:38 42.56141 10.99154 22532 ft 384 kts 114°
2026-05-01 14:38 42.54742 11.02173 21965 ft 371 kts 114°
2026-05-01 14:38 42.53398 11.05078 21510 ft 367 kts 114°
2026-05-01 14:39 42.52046 11.08009 21015 ft 366 kts 114°
2026-05-01 14:39 42.50695 11.10932 20533 ft 365 kts 114°
2026-05-01 14:39 42.49346 11.13845 20049 ft 364 kts 114°
2026-05-01 14:39 42.48003 11.16740 19566 ft 362 kts 114°
2026-05-01 14:40 42.46676 11.19588 19401 ft 351 kts 114°
2026-05-01 14:40 42.45399 11.22319 19311 ft 338 kts 114°
2026-05-01 14:40 42.44158 11.24979 19046 ft 332 kts 113°
2026-05-01 14:40 42.42927 11.27632 18558 ft 334 kts 113°
2026-05-01 14:41 42.41691 11.30291 18154 ft 333 kts 113°
2026-05-01 14:41 42.40461 11.32926 17768 ft 330 kts 113°
2026-05-01 14:41 42.39242 11.35537 17347 ft 326 kts 113°
2026-05-01 14:41 42.38040 11.38103 16811 ft 319 kts 113°
2026-05-01 14:42 42.36868 11.40600 16378 ft 310 kts 113°
2026-05-01 14:42 42.35719 11.43055 15988 ft 310 kts 114°
2026-05-01 14:42 42.34582 11.45489 15579 ft 310 kts 114°
2026-05-01 14:42 42.33434 11.47941 15167 ft 309 kts 114°
2026-05-01 14:43 42.32282 11.50398 14757 ft 309 kts 114°
2026-05-01 14:43 42.31131 11.52848 14349 ft 308 kts 115°
2026-05-01 14:43 42.29987 11.55281 13957 ft 307 kts 115°
2026-05-01 14:43 42.28843 11.57710 13546 ft 305 kts 115°
2026-05-01 14:44 42.27710 11.60114 13141 ft 303 kts 115°
2026-05-01 14:44 42.25458 11.64889 12308 ft 299 kts 116°
2026-05-01 14:44 42.24340 11.67258 11889 ft 298 kts 116°
2026-05-01 14:45 42.23228 11.69610 11533 ft 296 kts 116°
2026-05-01 14:45 42.21102 11.74317 10744 ft 291 kts 113°
2026-05-01 14:45 42.20151 11.76711 10342 ft 287 kts 112°
2026-05-01 14:46 42.19233 11.79055 9812 ft 279 kts 112°
2026-05-01 14:46 42.17489 11.83517 9033 ft 259 kts 112°
2026-05-01 14:46 42.16659 11.85643 8680 ft 256 kts 112°
2026-05-01 14:47 42.15827 11.87778 8313 ft 259 kts 113°
2026-05-01 14:47 42.14989 11.89920 7921 ft 258 kts 114°
2026-05-01 14:47 42.14162 11.92036 7578 ft 259 kts 112°
2026-05-01 14:48 42.12470 11.96345 6939 ft 254 kts 114°
2026-05-01 14:48 42.11658 11.98401 6475 ft 245 kts 114°
2026-05-01 14:48 42.10054 12.02485 5276 ft 249 kts 114°
2026-05-01 14:49 42.08443 12.06567 4607 ft 246 kts 114°
2026-05-01 14:49 42.06789 12.10616 4143 ft 251 kts 124°
2026-05-01 14:50 42.04947 12.12631 4151 ft 261 kts 148°
2026-05-01 14:50 42.00515 12.14673 4124 ft 234 kts 158°
2026-05-01 14:51 41.99015 12.15311 3891 ft 218 kts 156°
2026-05-01 14:51 41.96280 12.16472 3233 ft 196 kts 159°
2026-05-01 14:52 41.93848 12.17490 2729 ft 170 kts 158°
2026-05-01 14:52 41.92768 12.17944 2506 ft 156 kts 158°
2026-05-01 14:52 41.90823 12.18760 2116 ft 141 kts 157°
2026-05-01 14:53 41.89886 12.19153 1742 ft 142 kts 158°
2026-05-01 14:53 41.88944 12.19548 1552 ft 142 kts 159°
2026-05-01 14:53 41.88008 12.19940 1358 ft 140 kts 159°
2026-05-01 14:53 41.87082 12.20328 1181 ft 139 kts 159°
2026-05-01 14:54 41.86160 12.20713 1070 ft 139 kts 159°
2026-05-01 14:54 41.85236 12.21107 875 ft 139 kts 157°
2026-05-01 14:54 41.84305 12.21494 651 ft 142 kts 156°
2026-05-01 14:54 41.83356 12.21884 460 ft 143 kts 159°
2026-05-01 14:55 41.82397 12.22275 290 ft 144 kts 159°
2026-05-01 14:55 41.81447 12.22683 104 ft 142 kts 160°
2026-05-01 14:55 41.80826 12.22945 29 ft 138 kts 161°
2026-05-01 14:55 41.80079 12.23258 22 ft 76 kts 163°
2026-05-01 14:56 41.79702 12.23416 18 ft 36 kts 160°
2026-05-01 14:56 41.79563 12.23501 16 ft 24 kts 149°
2026-05-01 14:56 41.79461 12.23611 18 ft 19 kts 132°
2026-05-01 14:56 41.79369 12.23741 18 ft 7 kts 134°
2026-05-01 14:57 41.79356 12.23760 19 ft 0 kts 132°
2026-05-01 14:57 41.79337 12.23791 19 ft 4 kts 126°
2026-05-01 14:57 41.79324 12.23827 19 ft 5 kts 112°
2026-05-01 14:58 41.79314 12.23871 19 ft 6 kts 101°
2026-05-01 14:58 41.79313 12.23890 19 ft 2 kts 90°
2026-05-01 14:58 41.79315 12.23917 19 ft 3 kts 93°
2026-05-01 14:58 41.79316 12.23927 19 ft 2 kts 83°
2026-05-01 14:59 41.79313 12.23945 19 ft 2 kts 119°
2026-05-01 14:59 41.79283 12.23963 19 ft 8 kts 169°
2026-05-01 14:59 41.79223 12.23966 19 ft 9 kts 177°
2026-05-01 14:59 41.79154 12.23974 19 ft 11 kts 171°
2026-05-01 15:00 41.78987 12.24040 20 ft 14 kts 162°
2026-05-01 15:00 41.78899 12.24077 21 ft 14 kts 162°
2026-05-01 15:00 41.78796 12.24120 20 ft 16 kts 162°
2026-05-01 15:01 41.78712 12.24157 20 ft 8 kts 154°
2026-05-01 15:01 41.78699 12.24200 18 ft 5 kts 89°
2026-05-01 15:01 41.78706 12.24255 18 ft 4 kts 78°
2026-05-01 15:01 41.78702 12.24285 18 ft 4 kts 116°
2026-05-01 15:02 41.78687 12.24299 18 ft 3 kts 151°
2026-05-01 15:02 41.78670 12.24308 18 ft 4 kts 160°
2026-05-01 15:02 41.78643 12.24319 18 ft 3 kts 163°
2026-05-01 15:02 41.78637 12.24321 18 ft 0 kts 163°